Location: ??
(35.1714°N, 128.2806°E)
Time: 14:41:34
(UTC+00:00)

Spot 2 - Pass Details

Date: 29 October 2020
Orbit: 570 x 773 km, 98.7° (Epoch: 30 November)

Event Time Altitude Azimuth Distance (km) Brightness Sun altitude
Rises 21:16:52 0° 9° (N) 3,019 7.6 -6.7°
Reaches altitude 10° 21:19:03 10° 6° (N) 2,133 6.8 -6.2°
Maximum altitude 21:23:41 64° 286° (WNW) 787 4.4 -5.3°
Drops below altitude 10° 21:28:33 10° 205° (SSW) 2,238 6.8 -4.3°
Sets 21:30:54 0° 202° (SSW) 3,180 7.6 -3.9°
